Flag for Central African Republic Weather past 2 weeks in Bangui, Central African Republic

Now
81 °F

Light rain. Passing clouds.


Feels Like: 86 °F
Forecast: 74 / 94 °F
Wind: 2 mph from Southeast

Location: Bangui Airport

Current Time: May 5, 2015 at 10:22:25 PM

Latest Report: May 5, 2015 at 8:00 PM


Visibility: 5 mi

Pressure: 29.83 "Hg

Humidity: 84%

Dew point: 75 °F

Location of BanguiLocation

Historic Weather in Bangui — Graph

°F

Bangui temperature yesterday

Maximum temperature yesterday: 95 °F (at 2:00 PM)
Minimum temperature yesterday: 72 °F (at 5:00 PM)
Average temperature yesterday: 81 °F

Past Weeks' High & Low Weather Summary

 TemperatureHumidityPressure
High97 °F (Apr 23, 2:00 PM)100% (Apr 23, 4:00 PM)29.95 "Hg (Apr 23, 4:00 PM)
Low70 °F (Apr 26, 6:00 AM)39% (May 1, 3:00 PM)29.71 "Hg (Apr 29, 4:00 PM)
Average81 °F77%29.84 "Hg
* Reported Apr 21 9:00 AM — May 5 8:00 PM, Bangui, Weather by CustomWeather, © 2015

Note: Actual official high and low records may vary slightly from our data, if they occured in-between our weather recording intervals... More about our weather records

Advertising

Bangui weather history for previous 24 hours

 ConditionsComfort  
Time TempWeatherWind HumidityBarometerVisibility
8:00 PM
Tue, May 5
81 °FLight rain. Passing clouds.2 mph84%29.83 "Hg5 mi
7:00 PM82 °FPassing clouds.2 mph79%29.80 "Hg5 mi
6:00 PM84 °FPassing clouds.3 mph74%29.77 "HgN/A
5:00 PM86 °FBroken clouds.8 mph66%29.74 "HgN/A
4:00 PM88 °FBroken clouds.6 mph66%29.77 "HgN/A
3:00 PM90 °FBroken clouds.2 mph63%29.80 "HgN/A
2:00 PM88 °FBroken clouds.5 mph66%29.80 "HgN/A
1:00 PM86 °FScattered clouds.5 mph70%29.83 "HgN/A
12:00 PM86 °FPartly sunny.9 mph70%29.86 "HgN/A
11:00 AM84 °FPartly sunny.7 mph74%29.89 "HgN/A
10:00 AM84 °FPartly sunny.7 mph70%29.89 "HgN/A
9:00 AM82 °FScattered clouds.1 mph74%29.92 "HgN/A
8:00 AM79 °FPartly sunny.1 mph79%29.89 "HgN/A
7:00 AM75 °FPartly sunny.No wind89%29.89 "Hg5 mi
6:00 AM72 °FScattered clouds.2 mph100%29.86 "Hg4 mi
5:00 AM72 °FPassing clouds.No wind100%29.86 "Hg4 mi
4:00 AM72 °FPassing clouds.1 mph100%29.83 "HgN/A
3:00 AM73 °FPassing clouds.No wind94%29.83 "HgN/A
2:00 AM73 °FPassing clouds.2 mph94%29.83 "HgN/A
1:00 AM73 °FThunderstorms. Passing clouds.3 mph94%29.83 "HgN/A
12:00 AM73 °FThunderstorms. Overcast.No wind94%29.86 "HgN/A
11:00 PM
Mon, May 4
73 °FThunderstorms. Overcast.3 mph94%29.86 "HgN/A
10:00 PM73 °FThunderstorms. Passing clouds.7 mph89%29.89 "HgN/A
Weather by CustomWeather, © 2015

See weather overviewHow to use our weather pages